Location: Atherton
(17.2661°S, 145.4859°E)
Time: 22:56:29
(UTC+10:00)

Transit 2A - Pass Details

Date: 20 June 2025
Orbit: 598 x 948 km, 66.7° (Epoch: 19 July)

Event Time Altitude Azimuth Distance (km) Brightness Sun altitude
Rises 09:13:47 0° 27° (NNE) 3,347 10.3 29.0°
Reaches altitude 10° 09:18:16 10° 61° (ENE) 2,512 10.2 29.9°
Maximum altitude 09:19:53 11° 77° (ENE) 2,460 9.8 30.1°
Drops below altitude 10° 09:21:33 10° 93° (E) 2,573 9.5 30.4°
Sets 09:26:19 0° 125° (SE) 3,585 9.6 31.3°
